Weather Roundup
Issued by NWS Corpus Christi, TX

Home | Current Version | Previous Version | Text Only | Print | Product List | Glossary On
Versions: 1 2 3 4 5 6 7 8 9 10 11 12 13 14 15 16 17 18 19 20 21 22 23 24 25 26 27 28 29 30 31 32 33 34 35 36 37 38 39 40 41 42 43 44 45 46 47 48 49 50
000
ASUS44 KCRP 011410
HRRCRP

SOUTH TEXAS REGIONAL WEATHER ROUNDUP
NATIONAL WEATHER SERVICE CORPUS CHRISTI TX
900 AM CDT FRI AUG 01 2014


TXZ229>244-011500-
...CORPUS CHRISTI AREA OBSERVATIONS...

CITY           SKY/WX    TMP DP  RH WIND       PRES   REMARKS
CORPUS CHRISTI PTSUNNY   83  76  79 SE3       29.98R HX  91
NAS CORPUS CHR CLOUDY    83  78  85 SE5       29.98R HX  93
ROCKPORT       MOSUNNY   84  76  76 S7        29.98R HX  93
KINGSVILLE NAS PTSUNNY   83  77  82 NE5       29.97R HX  92
ALICE          CLOUDY    83  75  77 SE8       29.97S HX  90
FALFURRIAS     CLOUDY    67  32  26 NE6       29.96S
$$

...VICTORIA AREA OBSERVATIONS...

CITY           SKY/WX    TMP DP  RH WIND       PRES   REMARKS
VICTORIA       CLOUDY    83  77  82 N5        29.99R HX  92
BEEVILLE       FAIR      84  75  74 SE3       29.98S HX  91
PLEASANTON     MOSUNNY   80  64  58 NE9       30.02R
SAN ANTONIO    CLOUDY    79  64  60 NE6       30.04R
$$

...LAREDO AREA OBSERVATIONS...

CITY           SKY/WX    TMP DP  RH WIND       PRES   REMARKS
LAREDO         CLOUDY    83  74  74 E9        30.00R
COTULLA        CLOUDY    81  72  74 E9        30.00R
DEL RIO        CLOUDY    80  65  59 N5        30.04R
MCALLEN        MOSUNNY   83  75  77 S14       29.94R HX  90
HEBBRONVILLE   CLOUDY    80  74  81 NE7       29.99S HAZE
$$

...OTHER TEXAS OBSERVATIONS...

CITY           SKY/WX    TMP DP  RH WIND       PRES   REMARKS
BROWNSVILLE    MOSUNNY   83  77  82 S10       29.94R HX  92
HOUSTON        CLOUDY    77  72  83 NW5       29.98R
COL. STATION   CLOUDY    73  69  87 NW9       30.01R
AUSTIN         CLOUDY    75  65  70 N9        30.03R
WACO           CLOUDY    73  66  78 N7        30.04R
FORT WORTH     CLOUDY    71  66  84 NE13      30.05R
WICHITA FALLS  PTSUNNY   70  66  87 NE3       30.09R
LUBBOCK        PTSUNNY   68  59  73 CALM      30.20R
EL PASO        LGT RAIN  67  63  87 N6        30.19R
$$

...MARINE OBSERVATIONS...

STATION/POSITION TIME  SKY/WX   TEMP    WIND        PRES    VSBY  WAVE   SWELL
                                AIR SEA DIR/SP/G                  HT/PER HT/PER
                 (UTC)          (F)     (DEG/KT/KT) (MB)    (MI)  (FT/S) (FT/S)
PORT ARANSAS     1400            80 82   50/  3/  3 1015.7R
BUOY 90 E PORT A 1400            83 83  240/  6/  8 1015.5R         3/ 6   2/ 6
BUOY 45 SE BAFFI 1400            83 83  180/ 10/ 12 1014.4R         2/ 5   2/ 5
BUOY 200 E PT IS 1400            84 86  230/  8/ 10 1015.1R         1/ 4
BUOY 15 E GALVES NOT AVBL
$$


USA.gov is the U.S. government's official web portal to all federal, state and local government web resources and services.